Time,TemperatureF,DewpointF,PressureIn,WindDirection,WindDirectionDegrees,WindSpeedMPH,WindSpeedGustMPH,Humidity,HourlyPrecipIn,Conditions,Clouds,dailyrainin,SolarRadiationWatts/m^2,SoftwareType,DateUTC
2013-05-04 00:22:00,43.0,23.0,-100.00,NE,38,11.0,14.0,44,0.00,,,0.00,0.000000,,2013-05-04 05:22:00,
2013-05-04 00:32:00,43.0,23.0,-100.00,NE,38,11.0,14.0,44,0.00,,,0.00,0.000000,,2013-05-04 05:32:00,
2013-05-04 00:42:00,43.0,23.0,-100.00,NE,38,11.0,14.0,44,0.00,,,0.00,0.000000,,2013-05-04 05:42:00,
2013-05-04 00:51:00,42.0,23.0,-100.00,NNE,28,9.0,13.0,47,0.00,,,-99.99,0.000000,,2013-05-04 05:51:00,
2013-05-04 01:11:00,42.0,23.0,-100.00,NNE,28,9.0,13.0,47,0.00,,,-99.99,0.000000,,2013-05-04 06:11:00,
2013-05-04 01:21:00,42.0,23.0,-100.00,NNE,28,9.0,13.0,47,0.00,,,-99.99,0.000000,,2013-05-04 06:21:00,
2013-05-04 01:32:00,42.0,23.0,-100.00,NNE,28,9.0,13.0,47,0.00,,,-99.99,0.000000,,2013-05-04 06:32:00,
2013-05-04 01:42:00,42.0,23.0,-100.00,NNE,28,9.0,13.0,47,0.00,,,-99.99,0.000000,,2013-05-04 06:42:00,
2013-05-04 01:51:00,41.0,26.0,-100.00,ENE,58,7.0,14.0,55,0.00,,,0.00,0.000000,,2013-05-04 06:51:00,
2013-05-04 02:21:00,41.0,26.0,-100.00,ENE,58,7.0,14.0,55,0.00,,,0.00,0.000000,,2013-05-04 07:21:00,
2013-05-04 02:32:00,41.0,26.0,-100.00,ENE,58,7.0,14.0,55,0.00,,,0.00,0.000000,,2013-05-04 07:32:00,
2013-05-04 02:42:00,41.0,26.0,-100.00,ENE,58,7.0,14.0,55,0.00,,,0.00,0.000000,,2013-05-04 07:42:00,
2013-05-04 02:51:00,40.0,28.0,-100.00,NE,41,8.0,13.0,62,0.00,,,0.00,0.000000,,2013-05-04 07:51:00,
2013-05-04 03:11:00,40.0,28.0,-100.00,NE,41,8.0,13.0,62,0.00,,,0.00,0.000000,,2013-05-04 08:11:00,
2013-05-04 03:21:00,40.0,28.0,-100.00,NE,41,8.0,13.0,62,0.00,,,0.00,0.000000,,2013-05-04 08:21:00,
2013-05-04 03:31:00,40.0,28.0,-100.00,NE,41,8.0,13.0,62,0.00,,,0.00,0.000000,,2013-05-04 08:31:00,
2013-05-04 03:42:00,40.0,28.0,-100.00,NE,41,8.0,13.0,62,0.00,,,0.00,0.000000,,2013-05-04 08:42:00,
2013-05-04 03:51:00,39.0,29.0,-100.00,NE,37,11.0,17.0,66,0.00,,,0.00,0.000000,,2013-05-04 08:51:00,
2013-05-04 04:21:00,39.0,29.0,-100.00,NE,37,11.0,17.0,66,0.00,,,0.00,0.000000,,2013-05-04 09:21:00,
2013-05-04 04:32:00,39.0,29.0,-100.00,NE,37,11.0,17.0,66,0.00,,,0.00,0.000000,,2013-05-04 09:32:00,
2013-05-04 04:42:00,39.0,29.0,-100.00,NE,37,11.0,17.0,66,0.00,,,0.00,0.000000,,2013-05-04 09:42:00,
2013-05-04 04:51:00,39.0,29.0,-100.00,NNE,30,9.0,17.0,67,0.00,,,0.00,0.000000,,2013-05-04 09:51:00,
2013-05-04 05:23:00,39.0,29.0,-100.00,NNE,30,9.0,17.0,67,0.00,,,0.00,0.000000,,2013-05-04 10:23:00,
2013-05-04 05:33:00,39.0,29.0,-100.00,NNE,30,9.0,17.0,67,0.00,,,0.00,0.000000,,2013-05-04 10:33:00,
2013-05-04 05:42:00,39.0,29.0,-100.00,NNE,30,9.0,17.0,67,0.00,,,0.00,0.000000,,2013-05-04 10:42:00,
2013-05-04 05:51:00,38.0,30.0,-100.00,NNE,25,12.0,17.0,72,0.00,,,0.00,0.000000,,2013-05-04 10:51:00,
2013-05-04 06:11:00,38.0,30.0,-100.00,NNE,25,12.0,17.0,72,0.00,,,0.00,0.000000,,2013-05-04 11:11:00,
2013-05-04 06:21:00,38.0,30.0,-100.00,NNE,25,12.0,17.0,72,0.00,,,0.00,0.000000,,2013-05-04 11:21:00,
2013-05-04 06:32:00,38.0,30.0,-100.00,NNE,25,12.0,17.0,72,0.00,,,0.00,0.000000,,2013-05-04 11:32:00,
2013-05-04 06:43:00,38.0,30.0,-100.00,NNE,25,12.0,17.0,72,0.00,,,0.00,0.000000,,2013-05-04 11:43:00,
2013-05-04 06:51:00,38.0,31.0,-100.00,North,7,11.0,17.0,76,0.00,,,0.00,4.000000,,2013-05-04 11:51:00,
2013-05-04 07:36:00,38.0,31.0,-100.00,North,7,11.0,17.0,76,0.00,,,0.00,4.000000,,2013-05-04 12:36:00,
2013-05-04 07:42:00,38.0,31.0,-100.00,North,7,11.0,17.0,76,0.00,,,0.00,4.000000,,2013-05-04 12:42:00,
2013-05-04 07:51:00,38.0,31.0,-100.00,North,3,13.0,18.0,77,0.00,,,0.00,33.000000,,2013-05-04 12:51:00,
2013-05-04 08:21:00,38.0,31.0,-100.00,North,3,13.0,18.0,77,0.00,,,0.00,33.000000,,2013-05-04 13:21:00,
2013-05-04 08:32:00,38.0,31.0,-100.00,North,3,13.0,18.0,77,0.00,,,0.00,33.000000,,2013-05-04 13:32:00,
2013-05-04 08:42:00,38.0,31.0,-100.00,North,3,13.0,18.0,77,0.00,,,0.00,33.000000,,2013-05-04 13:42:00,
2013-05-04 08:51:00,38.0,32.0,-100.00,NNE,12,14.0,19.0,79,0.00,,,0.00,65.000000,,2013-05-04 13:51:00,
2013-05-04 09:11:00,38.0,32.0,-100.00,NNE,12,14.0,19.0,79,0.00,,,0.00,65.000000,,2013-05-04 14:11:00,
2013-05-04 09:21:00,38.0,32.0,-100.00,NNE,12,14.0,19.0,79,0.00,,,0.00,65.000000,,2013-05-04 14:21:00,
2013-05-04 09:32:00,38.0,32.0,-100.00,NNE,12,14.0,19.0,79,0.00,,,0.00,65.000000,,2013-05-04 14:32:00,
2013-05-04 09:42:00,38.0,32.0,-100.00,NNE,12,14.0,19.0,79,0.00,,,0.00,65.000000,,2013-05-04 14:42:00,
2013-05-04 09:51:00,38.0,31.0,-100.00,North,2,14.0,19.0,77,0.00,,,0.00,79.000000,,2013-05-04 14:51:00,
2013-05-04 10:22:00,38.0,31.0,-100.00,North,2,14.0,19.0,77,0.00,,,0.00,79.000000,,2013-05-04 15:22:00,
2013-05-04 10:33:00,38.0,31.0,-100.00,North,2,14.0,19.0,77,0.00,,,0.00,79.000000,,2013-05-04 15:33:00,
2013-05-04 10:43:00,38.0,31.0,-100.00,North,2,14.0,19.0,77,0.00,,,0.00,79.000000,,2013-05-04 15:43:00,
2013-05-04 10:51:00,39.0,34.0,-100.00,North,4,14.0,19.0,81,0.00,,,0.00,114.000000,,2013-05-04 15:51:00,
2013-05-04 11:22:00,39.0,34.0,-100.00,North,4,14.0,19.0,81,0.00,,,0.00,114.000000,,2013-05-04 16:22:00,
2013-05-04 11:33:00,39.0,34.0,-100.00,North,4,14.0,19.0,81,0.00,,,0.00,114.000000,,2013-05-04 16:33:00,
2013-05-04 11:42:00,39.0,34.0,-100.00,North,4,14.0,19.0,81,0.00,,,0.00,114.000000,,2013-05-04 16:42:00,
2013-05-04 11:51:00,40.0,33.0,-100.00,North,8,17.0,23.0,76,0.00,,,0.00,182.000000,,2013-05-04 16:51:00,
2013-05-04 12:12:00,40.0,33.0,-100.00,North,8,17.0,23.0,76,0.00,,,0.00,182.000000,,2013-05-04 17:12:00,
2013-05-04 12:22:00,40.0,33.0,-100.00,North,8,17.0,23.0,76,0.00,,,0.00,182.000000,,2013-05-04 17:22:00,
2013-05-04 12:32:00,40.0,33.0,-100.00,North,8,17.0,23.0,76,0.00,,,0.00,182.000000,,2013-05-04 17:32:00,
2013-05-04 12:42:00,40.0,33.0,-100.00,North,8,17.0,23.0,76,0.00,,,0.00,182.000000,,2013-05-04 17:42:00,
2013-05-04 12:51:00,40.0,34.0,-100.00,North,10,15.0,21.0,80,0.00,,,0.00,161.000000,,2013-05-04 17:51:00,
2013-05-04 13:21:00,40.0,34.0,-100.00,North,10,15.0,21.0,80,0.00,,,0.00,161.000000,,2013-05-04 18:21:00,
2013-05-04 13:32:00,40.0,34.0,-100.00,North,10,15.0,21.0,80,0.00,,,0.00,161.000000,,2013-05-04 18:32:00,
2013-05-04 13:42:00,40.0,34.0,-100.00,North,10,15.0,21.0,80,0.00,,,0.00,161.000000,,2013-05-04 18:42:00,
2013-05-04 13:51:00,40.0,36.0,-100.00,North,6,13.0,20.0,87,0.00,,,0.00,169.000000,,2013-05-04 18:51:00,
2013-05-04 14:11:00,40.0,36.0,-100.00,North,6,13.0,20.0,87,0.00,,,0.00,169.000000,,2013-05-04 19:11:00,
2013-05-04 14:21:00,40.0,36.0,-100.00,North,6,13.0,20.0,87,0.00,,,0.00,169.000000,,2013-05-04 19:21:00,
2013-05-04 14:32:00,40.0,36.0,-100.00,North,6,13.0,20.0,87,0.00,,,0.00,169.000000,,2013-05-04 19:32:00,
2013-05-04 14:42:00,40.0,36.0,-100.00,North,6,13.0,20.0,87,0.00,,,0.00,169.000000,,2013-05-04 19:42:00,
2013-05-04 14:51:00,40.0,36.0,-100.00,North,359,12.0,17.0,87,0.01,,,0.01,139.000000,,2013-05-04 19:51:00,
2013-05-04 15:22:00,40.0,36.0,-100.00,North,359,12.0,17.0,87,0.01,,,0.01,139.000000,,2013-05-04 20:22:00,
2013-05-04 15:32:00,40.0,36.0,-100.00,North,359,12.0,17.0,87,0.01,,,0.01,139.000000,,2013-05-04 20:32:00,
2013-05-04 15:42:00,40.0,36.0,-100.00,North,359,12.0,17.0,87,0.01,,,0.01,139.000000,,2013-05-04 20:42:00,
2013-05-04 15:51:00,40.0,37.0,-100.00,North,3,12.0,16.0,88,0.01,,,0.02,101.000000,,2013-05-04 20:51:00,
2013-05-04 16:12:00,40.0,37.0,-100.00,North,3,12.0,16.0,88,0.01,,,0.02,101.000000,,2013-05-04 21:12:00,
2013-05-04 16:22:00,40.0,37.0,-100.00,North,3,12.0,16.0,88,0.01,,,0.02,101.000000,,2013-05-04 21:22:00,
2013-05-04 16:33:00,40.0,37.0,-100.00,North,3,12.0,16.0,88,0.01,,,0.02,101.000000,,2013-05-04 21:33:00,
2013-05-04 16:43:00,40.0,37.0,-100.00,North,3,12.0,16.0,88,0.01,,,0.02,101.000000,,2013-05-04 21:43:00,
2013-05-04 16:51:00,40.0,37.0,-100.00,North,3,10.0,15.0,88,0.00,,,0.02,73.000000,,2013-05-04 21:51:00,
2013-05-04 17:12:00,40.0,37.0,-100.00,North,3,10.0,15.0,88,0.00,,,0.02,73.000000,,2013-05-04 22:12:00,
2013-05-04 17:22:00,40.0,37.0,-100.00,North,3,10.0,15.0,88,0.00,,,0.02,73.000000,,2013-05-04 22:22:00,
2013-05-04 17:33:00,40.0,37.0,-100.00,North,3,10.0,15.0,88,0.00,,,0.02,73.000000,,2013-05-04 22:33:00,
2013-05-04 17:42:00,40.0,37.0,-100.00,North,3,10.0,15.0,88,0.00,,,0.02,73.000000,,2013-05-04 22:42:00,
2013-05-04 17:51:00,40.0,38.0,-100.00,NNE,13,9.0,15.0,92,0.01,,,-99.99,73.000000,,2013-05-04 22:51:00,
2013-05-04 18:22:00,40.0,38.0,-100.00,NNE,13,9.0,15.0,92,0.01,,,-99.99,73.000000,,2013-05-04 23:22:00,
2013-05-04 18:32:00,40.0,38.0,-100.00,NNE,13,9.0,15.0,92,0.01,,,-99.99,73.000000,,2013-05-04 23:32:00,
2013-05-04 18:42:00,40.0,38.0,-100.00,NNE,13,9.0,15.0,92,0.01,,,-99.99,73.000000,,2013-05-04 23:42:00,
2013-05-04 18:51:00,40.0,38.0,-100.00,North,11,10.0,15.0,93,0.01,,,0.04,72.000000,,2013-05-04 23:51:00,
2013-05-04 19:21:00,40.0,38.0,-100.00,North,11,10.0,15.0,93,0.01,,,0.04,72.000000,,2013-05-05 00:21:00,
2013-05-04 19:32:00,40.0,38.0,-100.00,North,11,10.0,15.0,93,0.01,,,0.04,72.000000,,2013-05-05 00:32:00,
2013-05-04 19:42:00,40.0,38.0,-100.00,North,11,10.0,15.0,93,0.01,,,0.04,72.000000,,2013-05-05 00:42:00,
2013-05-04 19:51:00,39.0,37.0,-100.00,North,9,9.0,13.0,94,0.00,,,0.04,24.000000,,2013-05-05 00:51:00,
2013-05-04 20:11:00,39.0,37.0,-100.00,North,9,9.0,13.0,94,0.00,,,0.04,24.000000,,2013-05-05 01:11:00,
2013-05-04 20:21:00,39.0,37.0,-100.00,North,9,9.0,13.0,94,0.00,,,0.04,24.000000,,2013-05-05 01:21:00,
2013-05-04 20:32:00,39.0,37.0,-100.00,North,9,9.0,13.0,94,0.00,,,0.04,24.000000,,2013-05-05 01:32:00,
2013-05-04 20:42:00,39.0,37.0,-100.00,North,9,9.0,13.0,94,0.00,,,0.04,24.000000,,2013-05-05 01:42:00,
2013-05-04 20:51:00,39.0,38.0,-100.00,North,1,8.0,12.0,96,0.01,,,0.05,4.000000,,2013-05-05 01:51:00,
2013-05-04 21:11:00,39.0,38.0,-100.00,North,1,8.0,12.0,96,0.01,,,0.05,4.000000,,2013-05-05 02:11:00,
2013-05-04 21:22:00,39.0,38.0,-100.00,North,1,8.0,12.0,96,0.01,,,0.05,4.000000,,2013-05-05 02:22:00,
2013-05-04 21:32:00,39.0,38.0,-100.00,North,1,8.0,12.0,96,0.01,,,0.05,4.000000,,2013-05-05 02:32:00,
2013-05-04 21:42:00,39.0,38.0,-100.00,North,1,8.0,12.0,96,0.01,,,0.05,4.000000,,2013-05-05 02:42:00,
2013-05-04 21:51:00,39.0,38.0,-100.00,North,7,6.0,12.0,97,0.01,,,0.06,0.000000,,2013-05-05 02:51:00,
2013-05-04 22:22:00,39.0,38.0,-100.00,North,7,6.0,12.0,97,0.01,,,0.06,0.000000,,2013-05-05 03:22:00,
2013-05-04 22:33:00,39.0,38.0,-100.00,North,7,6.0,12.0,97,0.01,,,0.06,0.000000,,2013-05-05 03:33:00,
2013-05-04 22:42:00,39.0,38.0,-100.00,North,7,6.0,12.0,97,0.01,,,0.06,0.000000,,2013-05-05 03:42:00,
2013-05-04 22:51:00,39.0,38.0,-100.00,North,359,6.0,9.0,97,0.00,,,0.06,0.000000,,2013-05-05 03:51:00,
2013-05-04 23:23:00,39.0,38.0,-100.00,North,359,6.0,9.0,97,0.00,,,0.06,0.000000,,2013-05-05 04:23:00,
2013-05-04 23:32:00,39.0,38.0,-100.00,North,359,6.0,9.0,97,0.00,,,0.06,0.000000,,2013-05-05 04:32:00,
2013-05-04 23:43:00,39.0,38.0,-100.00,North,359,6.0,9.0,97,0.00,,,0.06,0.000000,,2013-05-05 04:43:00,
2013-05-04 23:51:00,39.0,38.0,-100.00,North,7,6.0,8.0,97,0.00,,,0.06,0.000000,,2013-05-05 04:51:00,